COSMOS 1275 DEB

Satellite information

Favourite Embed

Satellite Type and Status

DEBRISIN ORBIT

Key statistics

Satellite COSMOS 1275 DEB at a glance.

Uptime

16105

Days in orbit

Revolutions

≈ 14.8

Per day

Orbit

LEO

Low Earth Orbit

Inclination

83.0

Latest

Satellite identification and parameters

Extended collection of information and parameters for COSMOS 1275 DEB.

Object identification

Identified? True

Debris? True

Object name: COSMOS 1275 DEB

International designator: 1981-053GB

Object number (NORAD): 13481

Object ID (CCSDS): 13481

Country: COMMONWEALTH OF INDEPENDENT STATES (CIS)

Current information (Y/N): Y

RCS size: SMALL

Orbital parameters

Period: 97.233 minutes

Inclination: 82.9795 deg

SMA: 7004.397 km

Apoapsis: 637.335 km

Periapsis: 615.189 km

RAAN: 314.5405 deg

Eccentricy: 0.0015809

Argument of periapsis: 88.8705 deg

Mean anomaly: 271.4321 deg

Mean motion: 14.80971218 rev/day

Mean motion (dot): 0.00027164 rev/day2

B* drag term: 0.0034892 1/REarth

Two-line elements (TLE)

Creation date: July 6, 2025, 10:26 p.m.

Reference frame: TEME

Reference center: EARTH

Epoch: July 6, 2025, 7:09 p.m. UTC

TLE line 0: 0 COSMOS 1275 DEB

TLE line 1: 1 13481U 81053GB 25187.79817625 .00027164 00000-0 34892-2 0 9990

TLE line 2: 2 13481 82.9795 314.5405 0015809 88.8705 271.4321 14.80971218215896

Live tracking on map

Real-time ground track for satellite COSMOS 1275 DEB.

In-orbit conjunctions

A list of the most updated potential collisions computed for object COSMOS 1275 DEB.

Target Orbit TCA Probability of collision Miss distance Type
CZ-6A DEB LEO 2024-12-07 14:28:57 0.0002150821 428.0 (m) DEBRIS
NOAA 17 DEB SSO 2024-06-16 10:12:47 0.000487514 18.0 (m) DEBRIS

Associated space launch

Navigation satellite providing location information for the Tsiklon-B navigation system

COSMOS 1275 DEB was lifted into orbit during the mission ‘Kosmos-3M | Parus 27’, on board a Kosmos-3M space rocket.

The launch took place on June 4, 1981, 3:41 p.m. from 132/2.

For more information about the launch, click the button.

Launch to space Kosmos-3M | Parus 27
Kosmos-3M | Parus 27

Agency: N/A

Status: Launch Successful

Launch date: June 4, 1981, 3:41 p.m. UTC

Rocket: Kosmos-3M

Launch pad: 132/2

Location: Plesetsk Cosmodrome, Russian Federation

...

Latest news about this satellite

There are no fresh news available about this satellite. Check back as we update our databases every day.


Newsletter sign-up

Weekly statistics, charts and insights to help you stay on top of the space industry.